Location: Unspecified
(0.0000°N, 0.0000°E)
Time: 13:11:28
(UTC+00:00)

JUGNU - Visible Passes

Search period start: 24 August 2019 00:00
Search period end: 03 September 2019 00:00
Orbit: 836 x 864 km, 20.0° (Epoch: 23 August)

Date Brightness Start Highest point End Pass type
(mag) Time Alt. Az. Time Alt. Az. Time Alt. Az.
24 Aug ? 05:06:13 10° NNW 05:09:02 13° N 05:11:52 10° NE visible
24 Aug ? 19:40:12 10° SW 19:45:34 45° SSE 19:45:34 45° SSE visible
25 Aug ? 04:50:51 10° NNW 04:53:59 14° NNE 04:57:07 10° NE visible
25 Aug ? 19:24:59 10° SW 19:30:40 51° SSE 19:31:46 45° ESE visible
26 Aug ? 04:35:31 10° NNW 04:38:55 15° NNE 04:42:20 10° NE visible
26 Aug ? 19:09:46 10° WSW 19:15:32 58° SSE 19:18:00 33° E visible
26 Aug ? 20:58:54 10° W 20:59:53 15° W 20:59:53 15° W visible
27 Aug ? 04:20:11 10° NNW 04:23:51 17° NNE 04:27:33 10° NE visible
27 Aug ? 18:54:34 10° WSW 19:00:24 65° SSE 19:04:15 22° E visible
27 Aug ? 20:43:52 10° W 20:46:08 23° W 20:46:08 23° W visible
28 Aug ? 04:06:17 14° NNW 04:08:47 18° NNE 04:12:44 10° ENE visible
28 Aug ? 18:39:22 10° WSW 18:45:16 74° SSE 18:50:30 13° ENE visible
28 Aug ? 20:28:51 10° W 20:32:23 31° WNW 20:32:23 31° WNW visible
29 Aug ? 03:52:27 18° N 03:53:42 20° NNE 03:57:53 10° ENE visible
29 Aug ? 05:37:21 10° NW 05:43:02 47° NNE 05:48:47 10° E visible
29 Aug ? 18:24:12 10° WSW 18:30:07 83° SSE 18:35:59 10° ENE visible
29 Aug ? 20:13:51 10° W 20:18:37 35° NNW 20:18:37 35° NNW visible
30 Aug ? 03:38:39 21° NNE 03:38:39 21° NNE 03:43:01 10° ENE visible
30 Aug ? 05:22:08 10° NW 05:27:54 53° NNE 05:33:43 10° E visible
30 Aug ? 19:58:53 10° W 20:04:03 32° NNW 20:04:50 31° N visible
31 Aug ? 03:24:53 21° NE 03:24:53 21° NE 03:28:08 10° ENE visible
31 Aug ? 05:06:55 10° WNW 05:12:45 59° NNE 05:18:38 10° E visible
31 Aug ? 19:43:55 10° WNW 19:48:56 29° NNW 19:51:00 23° NNE visible
01 Sep ? 03:11:08 18° NE 03:11:08 18° NE 03:13:14 10° ENE visible
01 Sep ? 04:53:01 17° WNW 04:57:36 67° NNE 05:03:31 10° ESE visible
01 Sep ? 19:28:59 10° WNW 19:33:50 26° NNW 19:37:08 16° NNE visible
02 Sep ? 02:57:23 14° ENE 02:57:23 14° ENE 02:58:18 10° ENE visible
02 Sep ? 04:39:15 28° WNW 04:42:27 75° NNE 04:48:24 10° ESE visible
02 Sep ? 19:14:04 10° WNW 19:18:44 24° NNW 19:23:12 11° NE visible
